Previsão horária em Senchity

Hoje, 25 Junho, Sexta-feira

Tempo Temperatura Precipitação Vento Pressão Humidade
00:00 +20°C° 0.3 mm 2 m/s 749 mmHg 95%
01:00 +20°C° 0.3 mm 2 m/s 748 mmHg 96%
02:00 +21°C° 0.3 mm 1 m/s 748 mmHg 96%
03:00 +21°C° 0.4 mm 1 m/s 748 mmHg 96%
04:00 +20°C° 0.4 mm 2 m/s 748 mmHg 95%
05:00 +20°C° 0.4 mm 2 m/s 747 mmHg 95%
06:00 +23°C° 0 mm 2 m/s 747 mmHg 88%
07:00 +24°C° 0 mm 2 m/s 747 mmHg 81%
08:00 +26°C° 0 mm 2 m/s 747 mmHg 74%
09:00 +28°C° 0 mm 2 m/s 747 mmHg 66%
10:00 +29°C° 0 mm 2 m/s 747 mmHg 58%
11:00 +31°C° 0 mm 3 m/s 747 mmHg 50%
12:00 +30°C° 0 mm 2 m/s 747 mmHg 53%
13:00 +30°C° 0 mm 2 m/s 747 mmHg 56%
14:00 +29°C° 0 mm 2 m/s 747 mmHg 58%
15:00 +30°C° 0 mm 2 m/s 747 mmHg 55%
16:00 +31°C° 0 mm 2 m/s 746 mmHg 52%
17:00 +32°C° 0 mm 2 m/s 745 mmHg 49%
18:00 +29°C° 0.3 mm 2 m/s 745 mmHg 61%
19:00 +26°C° 0.3 mm 2 m/s 745 mmHg 73%
20:00 +24°C° 0.3 mm 2 m/s 744 mmHg 85%
21:00 +21°C° 0.7 mm 2 m/s 745 mmHg 88%
22:00 +21°C° 0.7 mm 1 m/s 745 mmHg 92%
23:00 +20°C° 0.7 mm 1 m/s 746 mmHg 96%

Amanhã, 26 Junho, Sábado

Tempo Temperatura Precipitação Vento Pressão Humidade
00:00 +20°C° 0.3 mm 1 m/s 746 mmHg 96%
01:00 +19°C° 0.3 mm 1 m/s 746 mmHg 96%
02:00 +19°C° 0.3 mm 1 m/s 745 mmHg 97%
03:00 +18°C° 0 mm 2 m/s 745 mmHg 96%
04:00 +19°C° 0 mm 2 m/s 745 mmHg 96%
05:00 +19°C° 0 mm 2 m/s 745 mmHg 96%
06:00 +20°C° 0 mm 3 m/s 745 mmHg 88%
07:00 +22°C° 0 mm 3 m/s 746 mmHg 81%
08:00 +24°C° 0 mm 3 m/s 746 mmHg 74%
09:00 +26°C° 0 mm 3 m/s 746 mmHg 68%
10:00 +27°C° 0 mm 3 m/s 746 mmHg 61%
11:00 +28°C° 0 mm 3 m/s 746 mmHg 55%
12:00 +29°C° 0 mm 3 m/s 746 mmHg 53%
13:00 +30°C° 0 mm 3 m/s 746 mmHg 51%
14:00 +30°C° 0 mm 3 m/s 746 mmHg 49%
15:00 +30°C° 0 mm 3 m/s 746 mmHg 52%
16:00 +29°C° 0 mm 3 m/s 746 mmHg 56%
17:00 +29°C° 0 mm 3 m/s 746 mmHg 60%
18:00 +27°C° 0 mm 3 m/s 746 mmHg 67%
19:00 +25°C° 0 mm 3 m/s 746 mmHg 75%
20:00 +24°C° 0 mm 2 m/s 746 mmHg 83%
21:00 +21°C° 0 mm 2 m/s 746 mmHg 88%
22:00 +20°C° 0 mm 2 m/s 747 mmHg 92%
23:00 +19°C° 0 mm 2 m/s 747 mmHg 97%

Depois de amanhã, 27 Junho, Domingo

Tempo Temperatura Precipitação Vento Pressão Humidade
00:00 +20°C° 0 mm 1 m/s 747 mmHg 96%
01:00 +19°C° 0 mm 1 m/s 747 mmHg 96%
02:00 +19°C° 0 mm 1 m/s 747 mmHg 96%
03:00 +20°C° 0 mm 1 m/s 747 mmHg 95%
04:00 +20°C° 0 mm 1 m/s 747 mmHg 93%
05:00 +20°C° 0 mm 1 m/s 747 mmHg 92%
06:00 +21°C° 0 mm 1 m/s 747 mmHg 86%
07:00 +21°C° 0 mm 2 m/s 748 mmHg 80%
08:00 +23°C° 0 mm 2 m/s 748 mmHg 74%
09:00 +23°C° 0 mm 2 m/s 748 mmHg 76%
10:00 +21°C° 0 mm 2 m/s 748 mmHg 78%
11:00 +21°C° 0 mm 2 m/s 748 mmHg 81%
12:00 +21°C° 0.1 mm 2 m/s 748 mmHg 81%
13:00 +21°C° 0.1 mm 2 m/s 748 mmHg 81%
14:00 +22°C° 0.1 mm 1 m/s 748 mmHg 81%
15:00 +23°C° 0.1 mm 1 m/s 748 mmHg 76%
16:00 +24°C° 0.1 mm 1 m/s 748 mmHg 71%
17:00 +25°C° 0.1 mm 1 m/s 747 mmHg 65%
18:00 +23°C° 0.1 mm 1 m/s 747 mmHg 72%
19:00 +22°C° 0.1 mm 1 m/s 747 mmHg 78%
20:00 +21°C° 0.1 mm 1 m/s 747 mmHg 85%
21:00 +20°C° 0 mm 1 m/s 747 mmHg 86%
22:00 +19°C° 0 mm 1 m/s 747 mmHg 88%
23:00 +18°C° 0 mm 1 m/s 747 mmHg 89%

28 Junho, Segunda-feira

Tempo Temperatura Precipitação Vento Pressão Humidade
00:00 +18°C° 0 mm 1 m/s 747 mmHg 89%
01:00 +18°C° 0 mm 1 m/s 747 mmHg 88%
02:00 +17°C° 0 mm 2 m/s 747 mmHg 88%
03:00 +17°C° 0 mm 2 m/s 748 mmHg 87%
04:00 +18°C° 0 mm 1 m/s 748 mmHg 86%
05:00 +18°C° 0 mm 1 m/s 748 mmHg 85%
06:00 +18°C° 0 mm 2 m/s 748 mmHg 78%
07:00 +20°C° 0 mm 2 m/s 748 mmHg 71%
08:00 +21°C° 0 mm 2 m/s 748 mmHg 63%
09:00 +23°C° 0 mm 2 m/s 748 mmHg 59%
10:00 +24°C° 0 mm 2 m/s 748 mmHg 54%
11:00 +26°C° 0 mm 2 m/s 748 mmHg 50%
12:00 +26°C° 0 mm 3 m/s 748 mmHg 50%
13:00 +26°C° 0 mm 3 m/s 748 mmHg 49%
14:00 +26°C° 0 mm 3 m/s 747 mmHg 49%
15:00 +26°C° 0 mm 3 m/s 747 mmHg 52%
16:00 +25°C° 0 mm 3 m/s 747 mmHg 54%
17:00 +25°C° 0 mm 3 m/s 747 mmHg 56%
18:00 +24°C° 0 mm 2 m/s 747 mmHg 63%
19:00 +21°C° 0 mm 2 m/s 747 mmHg 70%
20:00 +20°C° 0 mm 2 m/s 746 mmHg 77%
21:00 +19°C° 0 mm 2 m/s 746 mmHg 77%
22:00 +19°C° 0 mm 2 m/s 746 mmHg 77%
23:00 +18°C° 0 mm 2 m/s 746 mmHg 77%

29 Junho, Terça-feira

Tempo Temperatura Precipitação Vento Pressão Humidade
00:00 +18°C° 0 mm 2 m/s 746 mmHg 75%
01:00 +18°C° 0 mm 2 m/s 746 mmHg 74%
02:00 +18°C° 0 mm 2 m/s 746 mmHg 72%
03:00 +18°C° 0 mm 2 m/s 746 mmHg 74%
04:00 +18°C° 0 mm 2 m/s 746 mmHg 76%
05:00 +18°C° 0 mm 2 m/s 746 mmHg 77%
06:00 +19°C° 0 mm 2 m/s 746 mmHg 72%
07:00 +20°C° 0 mm 3 m/s 746 mmHg 66%
08:00 +21°C° 0 mm 3 m/s 746 mmHg 60%
09:00 +22°C° 0 mm 4 m/s 746 mmHg 57%
10:00 +23°C° 0 mm 4 m/s 746 mmHg 54%
11:00 +25°C° 0 mm 4 m/s 745 mmHg 50%
12:00 +25°C° 0 mm 4 m/s 745 mmHg 50%
13:00 +26°C° 0 mm 3 m/s 745 mmHg 49%
14:00 +26°C° 0 mm 3 m/s 745 mmHg 49%
15:00 +25°C° 0 mm 3 m/s 745 mmHg 56%
16:00 +24°C° 0 mm 2 m/s 745 mmHg 63%
17:00 +23°C° 0 mm 2 m/s 744 mmHg 69%
18:00 +21°C° 0 mm 1 m/s 744 mmHg 75%
19:00 +20°C° 0 mm 1 m/s 744 mmHg 81%
20:00 +19°C° 0 mm 1 m/s 744 mmHg 87%
21:00 +18°C° 0 mm 1 m/s 744 mmHg 89%
22:00 +18°C° 0 mm 1 m/s 744 mmHg 90%
23:00 +16°C° 0 mm 1 m/s 744 mmHg 91%

30 Junho, Quarta-feira

Tempo Temperatura Precipitação Vento Pressão Humidade
00:00 +18°C° 0 mm 1 m/s 744 mmHg 89%
01:00 +18°C° 0 mm 1 m/s 744 mmHg 87%
02:00 +17°C° 0 mm 2 m/s 744 mmHg 85%
03:00 +17°C° 0 mm 2 m/s 744 mmHg 84%
04:00 +17°C° 0 mm 2 m/s 744 mmHg 82%
05:00 +18°C° 0 mm 2 m/s 744 mmHg 80%
06:00 +19°C° 0 mm 3 m/s 744 mmHg 75%
07:00 +19°C° 0 mm 3 m/s 744 mmHg 70%
08:00 +20°C° 0 mm 3 m/s 744 mmHg 65%
09:00 +21°C° 0 mm 3 m/s 744 mmHg 63%
10:00 +22°C° 0 mm 3 m/s 743 mmHg 61%
11:00 +22°C° 0 mm 3 m/s 743 mmHg 59%
12:00 +24°C° 0 mm 3 m/s 743 mmHg 55%
13:00 +26°C° 0 mm 3 m/s 743 mmHg 51%
14:00 +27°C° 0 mm 3 m/s 743 mmHg 47%
15:00 +26°C° 0.1 mm 2 m/s 743 mmHg 56%
16:00 +24°C° 0.1 mm 2 m/s 743 mmHg 64%
17:00 +23°C° 0.1 mm 2 m/s 743 mmHg 73%
18:00 +21°C° 0 mm 2 m/s 743 mmHg 77%
19:00 +21°C° 0 mm 1 m/s 743 mmHg 82%
20:00 +20°C° 0 mm 1 m/s 743 mmHg 86%
21:00 +20°C° 0 mm 1 m/s 743 mmHg 87%
22:00 +20°C° 0 mm 1 m/s 743 mmHg 88%
23:00 +19°C° 0 mm 1 m/s 743 mmHg 89%
Mostrar mais

Necessitamos do seu Consentimento

A Meteoprog e os seus Fornecedores de Serviços podem armazenar e aceder a dados pessoais como cookies, identificadores do dispositivo ou outras tecnologias semelhantes existentes no seu dispositivo e processar estes dados para personalizar conteúdos e anúncios, assim como funcionalidades nas redes sociais e análise de tráfego.

  • Armazenar e/ou aceder a informações no seu dispositivo

    Os cookies, identificadores do dispositivo ou outras informações podem ser armazenados ou acedidos no seu dispositivo, para os fins acima indicados.

  • Anúncios e conteúdos personalizados, medição de anúncios e conteúdos, dados sobre o público-alvo e desenvolvimento de produtos

    Os anúncios e os conteúdos podem ser personalizados com base num perfil. Podem ser adicionados dados adicionais para uma maior personalização dos anúncios e dos conteúdos. A eficácia dos anúncios e dos conteúdos pode ser medida. Podem ser obtidas informações sobre o público que visualizou os anúncios e os conteúdos. Estes dados podem ser usados para desenvolver ou melhorar sistemas, softwares ou a experiência do utilizador.

Ao clicar em "Eu concordo”, permitirá o uso de cookies, identificadores do dispositivo e web beacons mencionados ou outras tecnologias semelhantes. As configurações do navegador do seu dispositivo podem ser alteradas.

Para certos fins, podem ser invocados interesses legítimos ao invés de consentimento. Pode ler mais informação sobre este assunto na nossa Política de Privacidade e Cookies.